{"data":{"norad_id":61511,"epoch":"2026-09-21T10:04:06.318048Z","epoch_age_seconds":112680,"freshness":"FRESH","line1":"1 61511U 24183C   26264.41951757 -.00000350  00000+0  47428-6 0  9990","line2":"2 61511  53.1598 311.6004 0000971  68.6979 291.4126 15.31702285109643","mean_motion":15.31702285,"eccentricity":9.71e-5,"inclination_deg":53.1598,"raan_deg":311.6004,"arg_perigee_deg":68.6979,"mean_anomaly_deg":291.4126,"bstar":4.7428e-7,"rev_number":10964,"period_min":94.013047711814,"perigee_km":470.06815847317,"apogee_km":471.39820906286,"semimajor_km":6848.870183768,"source":"CELESTRAK","updated_at":"2026-09-22T09:00:49.354336Z"}}